CAPE
0 0 0 0 0 0 0 0 0 0 0 9 5 4 0 16 23 6 1 1 1 0
0 0 0 0 0 0 0 0 0 0 6 24 27 24 20 25 30 15 7 4 4 5
0 0 0 0 0 0 0 0 0 0 12 24 25 32 17 30 15 5 6 4 5 8
0 0 0 0 0 0 0 0 0 0 3 24 28 15 14 11 27 10 3 3 2 11
0 0 0 0 0 0 0 0 0 0 3 14 27 20 18 24 5 0 3 4 6 9
0 0 0 0 0 0 0 0 0 3 17 19 14 11 9 0 0 5 7 3 0 3
0 0 0 0 0 0 0 0 0 14 23 20 4 2 1 1 4 3 0 0 0 1
0 0 0 0 0 0 0 0 3 6 19 16 8 2 0 3 0 1 0 0 0 0
0 0 0 0 0 0 0 0 1 5 14 16 3 0 0 0 0 0 0 0 0 0
0 0 0 0 0 0 0 0 3 13 9 7 2 0 0 0 0 0 0 0 0 0
0 0 0 0 0 0 1 1 9 13 11 3 0 0 0 0 0 0 0 0 0 0
0 0 0 0 0 0 2 3 6 4 3 2 1 0 0 0 0 0 0 0 0 0
0 0 0 0 0 0 4 0 0 0 0 0 0 0 0 0 0 0 0 0 0 0
0 0 0 0 0 1 4 0 0 0 0 0 0 0 0 0 0 0 0 0 0 0
CIN
-0 -0 -0 -0 -0 -0 -0 -0 -0 -0 -0 -0 -1 -2 -0 -1 -1 -2 -2 -2 -1 -0
-0 -0 -0 -0 -0 -0 -0 -0 -0 -0 -1 -0 -0 -0 -0 -1 -1 -1 -1 -1 -2 -2
-0 -0 -0 -0 -0 -0 -0 -0 -0 -0 -1 -1 -1 -1 -2 -1 -1 -3 -2 -2 -4 -4
-0 -0 -0 -0 -0 -0 -0 -0 -0 -0 -0 -1 -1 -6 -2 -2 -1 -2 -2 -4 -3 -4
-0 -0 -0 -0 -0 -0 -0 -0 -0 -0 -1 -2 -1 -2 -1 -1 -1 -2 -4 -5 -3 -3
-0 -0 -0 -0 -0 -0 -0 -0 -0 -1 -1 -1 -1 -1 -1 -0 -0 -1 -1 -4 -0 -2
-0 -0 -0 -0 -0 -0 -0 -0 -0 -1 -1 -1 -1 -1 -1 -2 -2 -1 -1 -0 -0 -1
-0 -0 -0 -0 -0 -0 -0 -0 -1 -1 -1 -1 -0 -0 -0 -1 -1 -1 -0 -0 -0 -0
-0 -0 -0 -0 -0 -0 -0 -0 -1 -2 -2 -1 -1 -0 -0 -0 -0 -0 -0 -0 -0 -0
-0 -0 -0 -0 -0 -0 -0 -0 -1 -1 -1 -0 -0 -0 -0 -0 -0 -0 -0 -0 -0 -0
-0 -0 -0 -0 -0 -0 -1 -2 -1 -1 -0 -0 -0 -0 -0 -0 -0 -0 -0 -0 -0 -0
-0 -0 -0 -0 -0 -0 -1 -1 -1 -1 -1 -1 -0 -0 -0 -0 -0 -0 -0 -0 -0 -0
-0 -0 -0 -0 -0 -0 -1 -0 -0 -0 -0 -0 -0 -0 -0 -0 -0 -0 -0 -0 -0 -0
-0 -0 -0 -0 -0 -1 -2 -0 -0 -0 -0 -0 -0 -0 -0 -0 -0 -0 -0 -0 -0 -0
Wind_Speed
25 27 28 31 34 34 36 36 37 36 32 28 25 26 27 30 29 28 27 29 30 30
24 27 29 32 33 35 35 37 37 36 32 27 25 26 28 30 30 26 27 28 27 27
25 27 29 32 35 35 36 38 38 36 32 28 28 28 29 31 29 27 25 25 26 27
24 27 30 33 35 36 38 38 38 36 34 30 30 30 30 30 30 23 23 25 26 28
25 28 30 32 35 36 38 37 37 36 33 31 30 31 31 28 24 21 23 25 27 30
26 28 31 33 36 36 38 38 36 34 33 32 31 30 26 23 20 20 23 24 28 31
27 29 31 33 35 37 37 37 35 33 33 31 29 26 23 21 20 21 22 25 28 31
27 28 31 33 35 36 37 34 33 32 30 28 25 23 21 19 19 22 26 28 30 29
28 29 31 33 33 35 36 34 33 32 28 26 24 21 20 20 22 25 28 29 29 29
28 30 32 31 31 34 37 34 32 29 26 24 20 18 19 22 24 26 27 27 28 28
30 31 31 31 32 34 34 31 29 28 23 20 17 17 20 24 25 26 26 26 26 27
30 32 32 33 34 33 31 29 27 24 20 17 16 17 21 25 26 25 25 25 25 27
30 31 33 34 33 29 27 26 24 21 18 16 16 17 20 24 25 25 25 26 26 25
30 32 33 33 29 26 26 25 22 19 16 15 16 17 18 21 23 24 26 26 27 26
Wind_Direction
354 350 348 347 345 343 342 340 339 338 337 335 334 335 334 333 334 332 332 331 331 332
355 352 349 348 347 345 343 341 340 339 338 336 334 334 333 334 332 330 330 330 331 333
351 351 349 348 346 345 343 342 341 340 338 335 333 331 332 332 332 327 329 331 331 331
349 348 347 346 345 344 342 342 341 341 339 336 333 331 329 329 328 325 329 332 332 330
347 346 344 344 344 344 343 343 342 341 340 338 334 332 329 330 332 331 330 331 332 330
343 343 343 343 343 343 343 342 342 341 340 340 338 335 336 336 335 334 334 334 332 331
340 340 341 341 342 343 343 342 343 342 342 340 341 343 342 342 340 338 339 336 334 332
338 339 339 340 341 342 343 343 342 341 342 345 347 347 344 344 343 341 337 336 334 335
337 337 338 339 340 342 343 343 343 341 342 344 348 351 351 349 344 340 338 337 338 339
337 337 337 339 340 341 342 344 345 346 346 347 351 357 356 348 343 341 341 341 341 343
336 336 338 339 339 341 343 344 347 348 350 353 359 359 353 348 345 343 344 345 347 347
337 337 338 338 339 340 343 345 346 349 351 353 357 357 353 348 346 347 348 350 351 350
337 337 337 338 340 343 345 346 348 350 352 355 354 355 353 351 349 349 351 352 353 354
338 338 338 339 344 347 346 347 349 351 353 355 355 353 354 353 352 352 352 353 354 356